Sigfox identifier Datetime Temperature Humidity SNR
002F068E 2019-04-23 14:50:53 16.5 35 24.6
002F068E 2019-04-23 14:16:58 16.5 35 24.6
002F068E 2019-04-23 13:43:03 16.3 35 24.6
002F068E 2019-04-23 13:09:07 16.3 35 24.8
002F068E 2019-04-23 12:35:12 16.3 35 24.6
002F068E 2019-04-23 12:01:17 16 35 24.7
002F068E 2019-04-23 11:27:22 16 35 24.3
002F068E 2019-04-23 10:53:27 16 35 24.3
002F068E 2019-04-23 10:19:33 15.9 35 24.1
002F068E 2019-04-23 09:45:38 15.9 35 24
002F068E 2019-04-23 09:11:45 15.8 34 24
002F068E 2019-04-23 08:37:51 15.8 34 23.6
002F068E 2019-04-23 08:03:56 15.8 34 23.6
002F068E 2019-04-23 07:30:03 15.8 34 23.5
002F068E 2019-04-23 06:56:08 15.8 34 23.5
002F068E 2019-04-23 06:22:14 15.8 34 23.7
002F068E 2019-04-23 05:48:20 15.7 34 23.8
002F068E 2019-04-23 05:14:27 15.6 34 23.9
002F068E 2019-04-23 04:40:33 15.7 34 24
002F068E 2019-04-23 04:06:38 15.7 34 24.2
002F068E 2019-04-23 03:32:45 15.7 34 24.4
002F068E 2019-04-23 02:58:50 15.6 34 24.5
002F068E 2019-04-23 02:24:56 15.7 34 24.5
002F068E 2019-04-23 01:51:01 15.7 34 24.8
002F068E 2019-04-23 01:17:07 15.7 34 24.8
002F068E 2019-04-23 00:43:12 15.8 34 24.9
002F068E 2019-04-23 00:09:18 15.8 34 25
002F068E 2019-04-22 23:35:22 15.8 34 25
002F068E 2019-04-22 23:01:26 15.8 34 24.9
002F068E 2019-04-22 22:27:31 15.9 34 24.8
002F068E 2019-04-22 21:53:35 15.8 34 24.8
002F068E 2019-04-22 21:19:40 15.9 34 24.9
002F068E 2019-04-22 20:45:46 16 34 24.8
002F068E 2019-04-22 20:11:52 16 34 24.8
002F068E 2019-04-22 19:37:58 16 34 24.7
002F068E 2019-04-22 19:04:04 16 34 24.7
002F068E 2019-04-22 18:30:10 16.1 34 24.6
002F068E 2019-04-22 17:56:16 16.2 34 24.5
002F068E 2019-04-22 17:22:22 16.1 34 24.4
002F068E 2019-04-22 16:48:27 16.2 34 24.4
002F068E 2019-04-22 16:14:33 16.1 34 24.3
002F068E 2019-04-22 15:40:39 16 34 24.2
002F068E 2019-04-22 15:06:45 16 34 24.1
002F068E 2019-04-22 14:32:50 16 34 23.9
002F068E 2019-04-22 13:58:57 16 34 23.8
002F068E 2019-04-22 13:25:04 16 34 23.7
002F068E 2019-04-22 12:51:10 15.9 34 23.4
002F068E 2019-04-22 12:17:16 15.9 34 23.4
002F068E 2019-04-22 11:43:21 15.9 34 23.1
002F068E 2019-04-22 11:09:28 15.9 34 23.1
002F068E 2019-04-22 10:35:34 16 34 22.9
002F068E 2019-04-22 10:01:40 15.8 34 22.8
002F068E 2019-04-22 09:27:45 15.8 34 22.8
002F068E 2019-04-22 08:53:51 15.8 34 22.9
002F068E 2019-04-22 08:19:56 15.8 34 23.1
002F068E 2019-04-22 07:46:02 15.8 34 23
002F068E 2019-04-22 07:12:08 15.8 34 23
002F068E 2019-04-22 06:38:12 15.8 34 22.8
002F068E 2019-04-22 06:04:16 15.8 34 23
002F068E 2019-04-22 05:30:22 15.8 34 23.2
002F068E 2019-04-22 04:56:28 15.7 34 23.3
002F068E 2019-04-22 04:22:34 15.8 34 23.4
002F068E 2019-04-22 03:48:39 15.7 34 23.6
002F068E 2019-04-22 03:14:45 15.8 34 23.6
002F068E 2019-04-22 02:40:48 15.8 34 23.8
002F068E 2019-04-22 02:06:53 15.6 34 24
002F068E 2019-04-22 01:32:58 15.7 34 24.1
002F068E 2019-04-22 00:59:02 15.6 34 24.3
002F068E 2019-04-22 00:25:08 15.6 34 24.3
002F068E 2019-04-21 23:51:13 15.6 34 24.6
002F068E 2019-04-21 23:17:21 15.6 34 24.7
002F068E 2019-04-21 22:43:25 15.6 34 24.7
002F068E 2019-04-21 22:09:31 15.6 34 24.8
002F068E 2019-04-21 21:35:36 15.6 34 24.7
002F068E 2019-04-21 21:01:42 15.6 34 24.8
002F068E 2019-04-21 20:27:47 15.6 34 24.8
002F068E 2019-04-21 19:53:53 15.6 34 24.8
002F068E 2019-04-21 19:19:59 15.6 34 24.7
002F068E 2019-04-21 18:46:04 15.6 34 24.7
002F068E 2019-04-21 18:12:10 15.6 34 24.6
002F068E 2019-04-21 17:38:15 15.6 34 24.5
002F068E 2019-04-21 17:04:22 15.6 34 24.5
002F068E 2019-04-21 16:30:28 15.6 34 24.5
002F068E 2019-04-21 15:56:34 15.6 34 24.3
002F068E 2019-04-21 15:22:40 15.6 34 24.2
002F068E 2019-04-21 14:48:46 15.6 34 24
002F068E 2019-04-21 14:14:51 15.6 33 23.9
002F068E 2019-04-21 13:40:57 15.6 34 23.8
002F068E 2019-04-21 13:07:02 15.6 33 23.8
002F068E 2019-04-21 12:33:09 15.6 33 23.6
002F068E 2019-04-21 11:59:16 15.6 33 23.5
002F068E 2019-04-21 11:25:22 15.6 33 23.5
002F068E 2019-04-21 10:51:28 15.6 33 23.6
002F068E 2019-04-21 10:17:36 15.6 33 23.5
002F068E 2019-04-21 09:43:42 15.6 33 23.3
002F068E 2019-04-21 09:09:48 15.7 33 23.3
002F068E 2019-04-21 08:35:53 15.8 33 23.4
002F068E 2019-04-21 08:01:58 15.8 34 23.8
002F068E 2019-04-21 07:28:04 15.8 33 23.7
002F068E 2019-04-21 06:54:09 15.8 33 23.8
002F068E 2019-04-21 06:20:14 15.8 33 23.9
002F068E 2019-04-21 05:46:21 15.8 33 23.9
002F068E 2019-04-21 05:12:26 15.8 33 23.9
002F068E 2019-04-21 04:38:32 15.8 33 24
002F068E 2019-04-21 04:04:38 15.8 33 23.9
002F068E 2019-04-21 03:30:42 15.7 33 24
002F068E 2019-04-21 02:56:48 15.8 33 24.1
002F068E 2019-04-21 02:22:54 15.7 33 24.3
002F068E 2019-04-21 01:49:00 15.7 33 24.4
002F068E 2019-04-21 01:15:06 15.7 33 24.6
002F068E 2019-04-21 00:41:11 15.6 33 24.7
002F068E 2019-04-21 00:07:16 15.7 33 24.9
002F068E 2019-04-20 23:33:22 15.6 33 25
002F068E 2019-04-20 22:59:27 15.6 33 25.1
002F068E 2019-04-20 22:25:33 15.6 33 25.3
002F068E 2019-04-20 21:51:38 15.6 33 25.3
002F068E 2019-04-20 21:17:43 15.6 33 25.3
002F068E 2019-04-20 20:43:49 15.6 33 25.2
002F068E 2019-04-20 20:09:54 15.6 33 25.2
002F068E 2019-04-20 19:35:59 15.6 33 25.1
002F068E 2019-04-20 19:02:05 15.6 33 25
002F068E 2019-04-20 18:28:11 15.6 33 24.8
002F068E 2019-04-20 17:54:15 15.7 33 24.7
002F068E 2019-04-20 17:20:21 15.6 33 24.6
002F068E 2019-04-20 16:46:26 15.6 33 24.6
002F068E 2019-04-20 16:12:32 15.6 33 24.4
002F068E 2019-04-20 15:38:37 15.7 33 24.4
002F068E 2019-04-20 15:04:44 15.6 33 24.5
002F068E 2019-04-20 14:30:51 15.6 33 24.5
002F068E 2019-04-20 13:56:57 15.6 33 24.7
002F068E 2019-04-20 13:23:03 15.6 33 24.8
002F068E 2019-04-20 12:49:09 15.6 33 24.8
002F068E 2019-04-20 12:15:16 15.6 33 24.6
002F068E 2019-04-20 11:41:22 15.6 33 24.4
002F068E 2019-04-20 11:07:27 15.6 33 24.1
002F068E 2019-04-20 10:33:33 15.6 33 24
002F068E 2019-04-20 09:59:37 15.7 33 23.8
002F068E 2019-04-20 09:25:43 15.7 33 23.9
002F068E 2019-04-20 08:51:49 15.8 33 23.8
002F068E 2019-04-20 08:17:55 15.8 33 23.7
002F068E 2019-04-20 07:44:01 15.8 33 23.7
002F068E 2019-04-20 07:10:06 15.9 33 23.7
002F068E 2019-04-20 06:36:12 15.8 33 23.8
002F068E 2019-04-20 06:02:18 15.8 33 23.8
002F068E 2019-04-20 05:28:24 15.9 33 24
002F068E 2019-04-20 04:54:28 15.8 33 24.1
002F068E 2019-04-20 04:20:34 15.8 33 24.2
002F068E 2019-04-20 03:46:39 15.8 33 24.2
002F068E 2019-04-20 03:12:45 15.8 33 24.4
002F068E 2019-04-20 02:38:51 15.8 33 24.4
002F068E 2019-04-20 02:04:57 15.9 33 24.4
002F068E 2019-04-20 01:31:03 16 32 24.5
002F068E 2019-04-20 00:57:08 16 33 24.6
002F068E 2019-04-20 00:23:14 16 32 24.6
002F068E 2019-04-19 23:49:19 16 33 24.6
002F068E 2019-04-19 23:15:24 16.1 33 24.6
002F068E 2019-04-19 22:41:30 16.1 32 24.9
002F068E 2019-04-19 22:07:37 16.1 32 25
002F068E 2019-04-19 21:33:44 16.2 33 25
002F068E 2019-04-19 20:59:50 16.3 32 25
002F068E 2019-04-19 20:25:57 16.3 32 24.8
002F068E 2019-04-19 19:52:04 16.3 32 24.8
002F068E 2019-04-19 19:18:10 16.3 32 24.6
002F068E 2019-04-19 18:44:17 16.3 32 24.6
002F068E 2019-04-19 18:10:24 16.4 32 24.5
002F068E 2019-04-19 17:36:30 16.3 32 24.4
002F068E 2019-04-19 17:02:36 16.3 32 24.4
002F068E 2019-04-19 16:28:43 16.3 32 24.3
002F068E 2019-04-19 15:54:49 16.3 32 24.2
002F068E 2019-04-19 15:20:54 16.3 32 24.1
002F068E 2019-04-19 14:47:00 16.3 32 24.1
002F068E 2019-04-19 14:13:06 16.3 32 23.9
002F068E 2019-04-19 13:39:12 16.1 32 23.9
002F068E 2019-04-19 13:05:17 16.1 32 23.9
002F068E 2019-04-19 12:31:23 16.1 32 23.8
002F068E 2019-04-19 11:57:29 16 32 23.7
002F068E 2019-04-19 11:23:36 16 32 23.6
002F068E 2019-04-19 10:49:42 16 32 23.6
002F068E 2019-04-19 10:15:48 16 32 23.6
002F068E 2019-04-19 09:41:54 16 32 23.5
002F068E 2019-04-19 09:08:00 16 32 23.8
002F068E 2019-04-19 08:34:06 16 32 24
002F068E 2019-04-19 08:00:13 16 32 24.4
002F068E 2019-04-19 07:26:19 16 32 24.5
002F068E 2019-04-19 06:52:26 16 32 24.7
002F068E 2019-04-19 06:18:31 16 32 24.8
002F068E 2019-04-19 05:44:37 16 32 24.7
002F068E 2019-04-19 05:10:44 16 32 24.9
002F068E 2019-04-19 04:36:50 16 32 24.9
002F068E 2019-04-19 04:02:57 16 32 25
002F068E 2019-04-19 03:29:04 16.1 32 25
002F068E 2019-04-19 02:55:11 16.1 32 24.9
002F068E 2019-04-19 02:21:18 16 31 24.8
002F068E 2019-04-19 01:47:24 16.1 31 25
002F068E 2019-04-19 01:13:30 16.3 31 25.1
002F068E 2019-04-19 00:39:36 16.3 31 25.3
002F068E 2019-04-19 00:05:42 16.4 31 25.3
002F068E 2019-04-18 23:31:47 16.5 31 25.2
002F068E 2019-04-18 22:57:53 16.5 31 25.2
002F068E 2019-04-18 22:24:00 16.5 31 25.1
002F068E 2019-04-18 21:50:05 16.6 31 25.3
002F068E 2019-04-18 21:16:12 16.7 31 25.1
002F068E 2019-04-18 20:42:17 16.6 31 24.9
002F068E 2019-04-18 20:08:24 16.7 31 24.8
002F068E 2019-04-18 19:34:29 16.7 31 24.6
002F068E 2019-04-18 19:00:34 16.7 31 24.2
002F068E 2019-04-18 18:26:40 16.7 31 23.9
002F068E 2019-04-18 17:52:45 16.7 31 23.2
002F068E 2019-04-18 17:18:51 16.7 31 22.8
002F068E 2019-04-18 16:44:57 16.7 31 22.4
002F068E 2019-04-18 16:11:03 16.7 31 22
002F068E 2019-04-18 15:37:09 16.7 31 21.9
002F068E 2019-04-18 15:03:14 16.5 31 21.4
002F068E 2019-04-18 14:29:20 16.5 31 21.2
002F068E 2019-04-18 13:55:27 16.4 31 21.5
002F068E 2019-04-18 13:21:34 16.3 31 21.8
002F068E 2019-04-18 12:47:40 16.3 31 22.3
002F068E 2019-04-18 12:13:47 16.3 31 22.5
002F068E 2019-04-18 11:39:54 16.3 31 22.4
002F068E 2019-04-18 11:06:01 16.3 31 22.3
002F068E 2019-04-18 10:32:08 16.3 31 21.9
002F068E 2019-04-18 09:58:17 16.3 31 22.2
002F068E 2019-04-18 09:24:22 16.2 31 22.3
002F068E 2019-04-18 08:50:29 16.3 31 22.6
002F068E 2019-04-18 08:16:35 16.3 31 22.8
002F068E 2019-04-18 07:42:41 16.3 31 22.8
002F068E 2019-04-18 07:08:48 16.3 31 23.2
002F068E 2019-04-18 06:34:54 16.3 30 23.3
002F068E 2019-04-18 06:01:01 16.3 30 23.4
002F068E 2019-04-18 05:27:07 16.1 30 23.5
002F068E 2019-04-18 04:53:16 16 30 23.6
002F068E 2019-04-18 04:19:21 16.1 30 23.6
002F068E 2019-04-18 03:45:27 16.1 30 23.7
002F068E 2019-04-18 03:11:35 16.2 30 23.9
002F068E 2019-04-18 02:37:40 16.3 30 24
002F068E 2019-04-18 02:03:47 16.3 30 24.1
002F068E 2019-04-18 01:29:51 16.3 30 24.3
002F068E 2019-04-18 00:55:56 16.5 30 24.4
002F068E 2019-04-17 23:48:11 16.7 30 24.5
002F068E 2019-04-17 23:14:16 16.7 30 24.2
002F068E 2019-04-17 22:40:23 16.8 30 24.1
002F068E 2019-04-17 22:06:29 16.9 30 23.7
002F068E 2019-04-17 21:32:34 16.8 30 23.7
002F068E 2019-04-17 20:58:41 16.7 30 23.6
002F068E 2019-04-17 20:24:46 16.7 30 23.5
002F068E 2019-04-17 19:50:53 16.7 29 23.4
002F068E 2019-04-17 19:16:59 16.7 29 23.3
002F068E 2019-04-17 18:43:05 16.7 29 23.3
002F068E 2019-04-17 18:09:10 16.7 29 23.3
002F068E 2019-04-17 17:35:16 16.7 29 23.1
002F068E 2019-04-17 17:01:22 16.7 29 23.6
002F068E 2019-04-17 16:27:28 16.7 29 23.4
002F068E 2019-04-17 15:53:33 16.7 29 23.4
002F068E 2019-04-17 15:19:41 16.7 29 23.5
002F068E 2019-04-17 14:45:46 16.7 28 23.6
002F068E 2019-04-17 14:11:52 16.8 28 23.7
002F068E 2019-04-17 13:04:05 17.1 28 23.8
002F068E 2019-04-17 12:30:11 17.1 28 23.8
002F068E 2019-04-17 11:56:18 17 28 23.7
002F068E 2019-04-17 11:22:23 16.9 28 23.5
002F068E 2019-04-17 10:48:30 16.9 28 23.5
002F068E 2019-04-17 10:14:35 16.8 28 23.3
002F068E 2019-04-17 09:40:42 16.8 28 23.2
002F068E 2019-04-17 09:06:48 16.7 28 23.1
002F068E 2019-04-17 08:32:53 16.9 27 23.1
002F068E 2019-04-17 07:58:59 17.1 27 23
002F068E 2019-04-17 07:25:05 17.1 27 22.9
002F068E 2019-04-17 06:51:11 17.3 27 22.8
002F068E 2019-04-17 06:17:16 17.5 27 22.9
002F068E 2019-04-17 05:43:22 17.5 27 23.1
002F068E 2019-04-17 05:09:28 17.6 27 23.2
002F068E 2019-04-17 04:35:33 17.6 27 23
002F068E 2019-04-17 04:01:39 17.8 27 22.6
002F068E 2019-04-17 03:27:45 17.8 27 22.4
002F068E 2019-04-17 02:53:52 17.8 26 22.3
002F068E 2019-04-17 02:19:57 18 26 21.1
002F068E 2019-04-17 01:46:03 18 26 20.9
002F068E 2019-04-17 01:12:09 18 26 20.7
002F068E 2019-04-17 00:38:15 18 26 20.9
002F068E 2019-04-17 00:04:21 18 26 20.7
002F068E 2019-04-16 23:30:27 17.8 25 20.1
002F068E 2019-04-16 22:56:33 17.8 25 19.8
002F068E 2019-04-16 22:22:38 18 25 20.4
002F068E 2019-04-16 21:48:44 18.4 25 20.3
002F068E 2019-04-16 21:14:49 18.6 25 20.5
002F068E 2019-04-16 20:40:53 18.8 25 20.7
002F068E 2019-04-16 20:06:58 18.8 25 20.7
002F068E 2019-04-16 19:33:02 19 24 20.9
002F068E 2019-04-16 18:59:07 19 24 20.9
002F068E 2019-04-16 18:25:12 19 24 20.8
002F068E 2019-04-16 17:51:20 19.2 24 21.3
002F068E 2019-04-16 17:17:27 19.2 23 21.6
002F068E 2019-04-16 16:43:28 19.4 23 21.9
002F068E 2019-04-16 16:09:33 19.5 23 21.8
002F068E 2019-04-16 15:35:38 19.7 23 21.6
002F068E 2019-04-16 15:01:42 19.9 22 21.9
002F068E 2019-04-16 13:53:49 21.2 23 22.2
002F068E 2019-04-16 13:19:54 21.2 23 22.5
002F068E 2019-04-16 12:45:57 21.2 22 22.9
002F068E 2019-04-16 12:12:06 21.2 22 23.1
002F068E 2019-04-16 11:38:06 21.1 22 23.2
002F068E 2019-04-16 11:04:11 21 23 23.5
002F068E 2019-04-16 10:30:15 21 23 23.5
002F068E 2019-04-16 09:56:21 21 23 23.4
002F068E 2019-04-16 09:22:23 21 23 23.3
002F068E 2019-04-16 08:48:27 21 23 23.4
002F068E 2019-04-16 08:14:32 21 23 23.5
002F068E 2019-04-16 07:40:35 21 23 23.4
002F068E 2019-04-16 07:06:39 21 23 23.6
002F068E 2019-04-16 06:32:43 21 23 23.5
002F068E 2019-04-16 05:58:46 21 22 23.5
002F068E 2019-04-16 05:24:51 21 22 23.4
002F068E 2019-04-16 04:50:55 21 22 23.2
002F068E 2019-04-16 04:17:00 21 22 24
002F068E 2019-04-16 03:43:05 21 22 24
002F068E 2019-04-16 03:09:10 21 22 23.8
002F068E 2019-04-16 02:35:15 21 22 23.7
002F068E 2019-04-16 02:01:19 21.1 22 23.4
002F068E 2019-04-16 01:27:23 21.1 22 23.4
002F068E 2019-04-16 00:53:27 21.1 22 23.5
002F068E 2019-04-16 00:19:31 21.2 22 23.2
002F068E 2019-04-15 23:45:36 21.2 22 23.6
002F068E 2019-04-15 23:11:40 21.2 22 23.7
002F068E 2019-04-15 22:37:45 21.2 22 23.7
002F068E 2019-04-15 22:03:49 21.2 22 23.9
002F068E 2019-04-15 21:29:53 21.2 22 24
002F068E 2019-04-15 20:56:01 21.2 22 24.1
002F068E 2019-04-15 20:22:01 21.2 21 24.5
002F068E 2019-04-15 19:48:05 21.2 21 24.8
002F068E 2019-04-15 19:14:09 21.2 21 25.2
002F068E 2019-04-15 18:40:14 21.2 21 25.3
002F068E 2019-04-15 18:06:18 21.2 21 25.4
002F068E 2019-04-15 17:32:21 21.3 21 25.4
002F068E 2019-04-15 16:58:27 21.4 21 25.5
002F068E 2019-04-15 16:24:28 21.4 21 25.7
002F068E 2019-04-15 15:50:32 21.4 21 25.9
002F068E 2019-04-15 15:16:36 21.6 20 26
002F068E 2019-04-15 14:42:40 21.6 20 25.6
002F068E 2019-04-15 14:08:44 21.6 19 25.9
002F068E 2019-04-15 13:34:49 21.8 19 26.2
002F068E 2019-04-15 13:00:54 21.9 18 26.5
002F068E 2019-04-15 12:26:58 22.2 17 26.7
002F068E 2019-04-15 11:53:02 22.5 17 26.7
002F068E 2019-04-15 11:19:06 22.4 15 26.9
002F068E 2019-04-15 10:45:10 22.5 16 26.9
002F068E 2019-04-15 10:11:14 22.3 16 26.8
002F068E 2019-04-15 09:37:18 22.2 16 26.8
002F068E 2019-04-15 09:03:23 22.2 16 26.7
002F068E 2019-04-15 08:29:27 22.1 16 26.6
002F068E 2019-04-15 07:55:31 22 16 26.7
002F068E 2019-04-15 07:21:34 21.9 16 26.8
002F068E 2019-04-15 06:47:38 21.9 16 26.8
002F068E 2019-04-15 06:13:42 21.8 16 26.8
002F068E 2019-04-15 05:39:45 21.8 16 26.8
002F068E 2019-04-15 05:05:48 21.8 16 26.5
002F068E 2019-04-15 04:31:52 21.8 16 26.4
002F068E 2019-04-15 03:57:55 21.8 16 26.4
002F068E 2019-04-15 03:24:00 21.8 17 26.4
002F068E 2019-04-15 02:50:03 21.8 17 26.7
002F068E 2019-04-15 02:16:06 21.8 17 26.6
002F068E 2019-04-15 01:42:09 21.8 17 26.7
002F068E 2019-04-15 01:08:12 21.8 17 26.8
002F068E 2019-04-15 00:34:15 21.8 17 26.8
002F068E 2019-04-15 00:00:18 21.8 17 26.7
002F068E 2019-04-14 23:26:21 21.8 17 26.5
002F068E 2019-04-14 22:52:23 21.8 17 26.3
002F068E 2019-04-14 22:18:26 21.8 17 26.2
002F068E 2019-04-14 21:44:29 22 17 26.3
002F068E 2019-04-14 21:10:31 22 17 26.2
002F068E 2019-04-14 20:36:33 22 17 26.2
002F068E 2019-04-14 20:02:35 22.1 17 26.2
002F068E 2019-04-14 19:28:38 22 17 26.2
002F068E 2019-04-14 18:54:39 22 17 26.2
002F068E 2019-04-14 18:20:41 22 17 26.5
002F068E 2019-04-14 17:46:44 22 17 26.4
002F068E 2019-04-14 17:12:47 22 17 26.3
002F068E 2019-04-14 16:38:50 22 17 26.3
002F068E 2019-04-14 16:04:52 22 17 26.2
002F068E 2019-04-14 15:30:55 22 17 26.2
002F068E 2019-04-14 14:56:57 22 17 26.3
002F068E 2019-04-14 14:22:59 22 17 26.3
002F068E 2019-04-14 13:49:01 22 17 26.3
002F068E 2019-04-14 13:15:04 22 17 26.3
002F068E 2019-04-14 12:41:06 22 17 26
002F068E 2019-04-14 12:07:08 22 17 26.1
002F068E 2019-04-14 11:33:12 22 18 25.8
002F068E 2019-04-14 10:59:17 22 18 25.8
002F068E 2019-04-14 10:25:21 22 18 26
002F068E 2019-04-14 09:51:25 22 17 26.3
002F068E 2019-04-14 09:17:29 22 17 26.2
002F068E 2019-04-14 08:43:33 22 17 26.2
002F068E 2019-04-14 08:09:37 21.9 17 26.3
002F068E 2019-04-14 07:35:40 21.9 17 26.2
002F068E 2019-04-14 07:01:43 21.9 17 26.1
002F068E 2019-04-14 06:27:47 21.8 17 26.2
002F068E 2019-04-14 05:53:50 21.8 17 26.2
002F068E 2019-04-14 05:19:54 21.8 17 26
002F068E 2019-04-14 04:45:57 21.9 17 26
002F068E 2019-04-14 04:12:00 21.9 17 25.8
002F068E 2019-04-14 03:38:03 22.1 17 26
002F068E 2019-04-14 03:04:05 22 17 26.1
002F068E 2019-04-14 02:30:08 22 17 26.3
002F068E 2019-04-14 01:56:12 22 17 26.1
002F068E 2019-04-14 01:22:15 22 17 26.1
002F068E 2019-04-14 00:48:19 22 17 26.2
002F068E 2019-04-14 00:14:22 22 17 26.1
002F068E 2019-04-13 23:40:24 22 17 26.1
002F068E 2019-04-13 23:06:27 22 17 26.2
002F068E 2019-04-13 22:32:30 22 17 26.3
002F068E 2019-04-13 21:58:33 22 16 26.4
002F068E 2019-04-13 21:24:36 22.1 16 26.5
002F068E 2019-04-13 20:50:39 22.1 16 26.4
002F068E 2019-04-13 20:16:42 22.2 16 26.3
002F068E 2019-04-13 19:42:44 22.2 16 26.1
002F068E 2019-04-13 19:08:46 22.2 16 26.3
002F068E 2019-04-13 18:34:49 22.2 16 26.3
002F068E 2019-04-13 18:00:52 22.2 16 26.5
002F068E 2019-04-13 17:26:54 22.3 16 26.6
002F068E 2019-04-13 16:52:56 22.3 16 26.6
002F068E 2019-04-13 16:18:59 22.3 17 26.8
002F068E 2019-04-13 15:45:00 22.4 17 26.7
002F068E 2019-04-13 15:11:03 22.5 16 26.9
002F068E 2019-04-13 14:37:05 22.5 16 27
002F068E 2019-04-13 14:03:09 22.5 16 27.1
002F068E 2019-04-13 13:29:11 22.5 16 27
002F068E 2019-04-13 12:55:14 22.5 16 26.9
002F068E 2019-04-13 12:21:16 22.5 16 26.7
002F068E 2019-04-13 11:47:18 22.5 16 26.7
002F068E 2019-04-13 11:13:20 22.5 16 26.7
002F068E 2019-04-13 10:39:22 22.5 16 26.7
002F068E 2019-04-13 10:05:25 22.5 16 26.8
002F068E 2019-04-13 09:31:27 22.5 16 26.9
002F068E 2019-04-13 08:57:31 22.4 16 27
002F068E 2019-04-13 08:23:34 22.4 16 27
002F068E 2019-04-13 07:49:38 22.4 16 26.8
002F068E 2019-04-13 07:15:43 22.4 16 26.8
002F068E 2019-04-13 06:41:46 22.3 16 26.9
002F068E 2019-04-13 06:07:49 22.4 16 26.9
002F068E 2019-04-13 05:33:53 22.4 16 26.8
002F068E 2019-04-13 04:59:56 22.5 16 26.7
002F068E 2019-04-13 04:25:59 22.4 16 26.9
002F068E 2019-04-13 03:52:00 22.5 16 27
002F068E 2019-04-13 03:18:03 22.5 16 26.8
002F068E 2019-04-13 02:44:06 22.5 16 26.7
002F068E 2019-04-13 02:10:10 22.5 16 26.5
002F068E 2019-04-13 01:36:12 22.5 16 26.6
002F068E 2019-04-13 01:02:14 22.5 16 26.5
002F068E 2019-04-13 00:28:17 22.6 17 26.5
002F068E 2019-04-12 23:54:21 22.7 17 26.2
002F068E 2019-04-12 23:20:24 22.7 17 26.3
002F068E 2019-04-12 22:46:27 22.7 17 26.4
002F068E 2019-04-12 22:12:30 22.8 17 26.5
002F068E 2019-04-12 21:38:33 22.9 17 26.5
002F068E 2019-04-12 21:04:36 22.9 17 26.6
002F068E 2019-04-12 20:30:39 22.9 17 26.6
002F068E 2019-04-12 19:56:42 22.9 16 26.5
002F068E 2019-04-12 19:22:43 22.9 16 26.6
002F068E 2019-04-12 18:48:45 23.1 15 26.2
002F068E 2019-04-12 18:14:47 23.1 15 26.1
002F068E 2019-04-12 17:40:49 23.3 16 26.3
002F068E 2019-04-12 17:06:50 23.3 16 26.4
002F068E 2019-04-12 16:32:52 23.3 17 26.6
002F068E 2019-04-12 15:58:53 23.2 17 26.9
002F068E 2019-04-12 15:24:54 23.1 17 27
002F068E 2019-04-12 14:50:54 22.9 18 27.1
002F068E 2019-04-12 14:16:56 22.7 18 25.5
002F068E 2019-04-12 13:42:57 22.2 18 15.3
002F068E 2019-04-12 13:09:00 21.4 19 10.5